Location: Unspecified
(48.2082°N, 0.0000°E)
Time: 22:46:15
(UTC+00:00)

S-56A Canister/Altair - Pass Details

Date: 20 June 2019
Orbit: 632 x 2500 km, 38.9° (Epoch: 19 July)

Event Time Altitude Azimuth Distance (km) Brightness Sun altitude
Rises 14:37:30 0° 201° (SSW) 5,237 12.2 50.5°
Reaches altitude 10° 14:43:10 10° 181° (S) 3,816 11.4 49.7°
Maximum altitude 14:47:55 15° 151° (SSE) 3,055 10.7 48.9°
Drops below altitude 10° 14:51:54 10° 120° (ESE) 3,085 10.5 48.3°
Sets 14:55:38 0° 97° (E) 3,723 10.7 47.7°
